Location: Grange Rosano
(44.4500°N, 6.9667°E)
Time: 07:20:37
(UTC+00:00)

Lacrosse 5 rocket - Pass Details

Date: 26 May 2022
Orbit: 456 x 629 km, 57.0° (Epoch: 01 July)

Event Time Altitude Azimuth Distance (km) Brightness Sun altitude
Exits shadow 02:59:19 - 264° (W) 1,952 3.6 -8.8°
Reaches altitude 10° 02:59:56 10° 268° (W) 1,733 3.4 -8.7°
Maximum altitude 03:03:27 31° 332° (NNW) 954 2.7 -8.2°
Drops below altitude 10° 03:07:10 10° 35° (NE) 1,837 5.5 -7.7°
Sets 03:09:40 0° 46° (NE) 2,769 7.5 -7.4°
